KC9ZAR-13 Weather Reports


Display with metric or nautical units.
time (UTC)temp
F
wind
direction
speed
MPH
gust
MPH
rain 1hr
in
rain 24hr
in
rain mn
in
humidity
%
barometer
mb
20260504025005 62 194 7.0 15.0 0.00 0.00 0.00 53 1009.8
20260504024505 62 201 7.0 14.0 0.00 0.00 0.00 53 1009.7
20260504024005 62 193 8.0 15.0 0.00 0.00 0.00 53 1009.4
20260504023004 62 191 8.0 14.0 0.00 0.00 0.00 53 1009.3
20260504022504 62 184 7.0 15.0 0.00 0.00 0.00 53 1009.5
20260504022004 62 183 6.0 13.0 0.00 0.00 0.00 53 1009.4
20260504021504 62 194 7.0 15.0 0.00 0.00 0.00 52 1009.4
20260504021005 62 191 7.0 15.0 0.00 0.00 0.00 52 1009.5
20260504020506 62 190 6.0 12.0 0.00 0.00 0.00 52 1009.5
20260504020006 62 188 7.0 12.0 0.00 0.00 0.00 52 1009.5
20260504015506 62 181 8.0 12.0 0.00 0.00 0.00 52 1009.6
20260504015006 63 196 6.0 12.0 0.00 0.00 0.00 52 1009.6
20260504014506 63 180 6.0 10.0 0.00 0.00 0.00 52 1009.6
20260504014006 63 187 6.0 12.0 0.00 0.00 0.00 52 1009.7
20260504012505 63 200 6.0 12.0 0.00 0.00 0.00 50 1009.7
20260504012006 64 185 5.0 9.0 0.00 0.00 0.00 50 1009.6
20260504011006 64 190 5.0 12.0 0.00 0.00 0.00 50 1009.7
20260504010505 64 190 7.0 12.0 0.00 0.00 0.00 50 1009.8
20260504010005 64 188 6.0 12.0 0.00 0.00 0.00 50 1009.8
20260504005505 64 187 7.0 10.0 0.00 0.00 0.00 50 1009.9
20260504005005 64 190 6.0 10.0 0.00 0.00 0.00 49 1009.9
20260504004506 64 203 5.0 10.0 0.00 0.00 0.00 50 1010.0
20260504004006 64 197 6.0 10.0 0.00 0.00 0.00 49 1010.1
20260504003506 64 200 6.0 12.0 0.00 0.00 0.00 49 1010.1
20260504003005 65 206 5.0 9.0 0.00 0.00 0.00 49 1010.2
20260504002506 65 195 6.0 12.0 0.00 0.00 0.00 49 1010.2
20260504002006 65 205 5.0 9.0 0.00 0.00 0.00 48 1010.3
20260504001506 65 196 5.0 10.0 0.00 0.00 0.00 48 1010.3
20260504000506 65 204 6.0 12.0 0.00 0.00 0.00 47 1010.3
20260504000005 65 189 8.0 13.0 0.00 0.00 0.00 46 1010.3
20260503235505 66 204 8.0 13.0 0.00 0.00 0.00 46 1010.4
20260503235006 66 201 6.0 13.0 0.00 0.00 0.00 46 1010.4
20260503234505 66 219 7.0 14.0 0.00 0.00 0.00 45 1010.4
20260503233506 66 197 10.0 15.0 0.00 0.00 0.00 45 1010.0
20260503233006 67 197 11.0 18.0 0.00 0.00 0.00 45 1009.9
20260503232506 67 193 8.0 15.0 0.00 0.00 0.00 45 1010.0
20260503231506 67 206 6.0 13.0 0.00 0.00 0.00 46 1010.1
20260503231006 67 217 7.0 13.0 0.00 0.00 0.00 46 1009.9
20260503225505 67 200 13.0 20.0 0.00 0.00 0.00 44 1010.2
20260503225005 67 208 10.0 20.0 0.00 0.00 0.00 45 1010.0
20260503224005 67 208 9.0 21.0 0.00 0.00 0.00 45 1010.1
20260503223506 67 189 10.0 21.0 0.00 0.00 0.00 45 1010.1
20260503223006 67 194 10.0 20.0 0.00 0.00 0.00 46 1010.1
20260503222505 67 209 11.0 20.0 0.00 0.00 0.00 45 1010.1
20260503222005 67 192 10.0 20.0 0.00 0.00 0.00 44 1010.2
20260503221505 67 199 11.0 22.0 0.00 0.00 0.00 46 1010.2
20260503221006 67 212 13.0 20.0 0.00 0.00 0.00 45 1010.5
20260503220506 67 199 14.0 22.0 0.00 0.00 0.00 45 1010.5
20260503220005 67 195 12.0 26.0 0.00 0.00 0.00 45 1010.7
20260503215506 67 203 11.0 20.0 0.00 0.00 0.00 45 1010.8
20260503214505 67 198 12.0 20.0 0.00 0.00 0.00 46 1010.9
20260503214005 67 203 9.0 20.0 0.00 0.00 0.00 47 1011.0
20260503213506 67 190 12.0 20.0 0.00 0.00 0.00 46 1011.1
20260503213006 67 178 9.0 25.0 0.00 0.00 0.00 46 1011.1
20260503212505 66 180 10.0 22.0 0.00 0.00 0.00 46 1011.2
20260503212005 66 198 8.0 23.0 0.00 0.00 0.00 46 1011.2
20260503211505 66 197 12.0 22.0 0.00 0.00 0.00 45 1011.6
20260503211006 66 192 14.0 22.0 0.00 0.00 0.00 45 1011.7
20260503210505 67 207 10.0 20.0 0.00 0.00 0.00 47 1011.9
20260503210006 67 208 13.0 20.0 0.00 0.00 0.00 46 1012.0
20260503205505 66 222 10.0 21.0 0.00 0.00 0.00 48 1012.1
20260503205006 66 219 12.0 18.0 0.00 0.00 0.00 47 1012.5
20260503204505 66 193 13.0 23.0 0.00 0.00 0.00 46 1012.6
20260503204005 66 206 10.0 20.0 0.00 0.00 0.00 47 1012.8
20260503203506 67 207 12.0 21.0 0.00 0.00 0.00 45 1012.8
20260503203006 67 215 9.0 17.0 0.00 0.00 0.00 47 1012.9
20260503202505 67 220 9.0 20.0 0.00 0.00 0.00 46 1013.1
20260503202005 67 197 9.0 20.0 0.00 0.00 0.00 46 1013.3
20260503201505 66 188 9.0 18.0 0.00 0.00 0.00 45 1013.3
20260503201005 67 220 7.0 14.0 0.00 0.00 0.00 46 1013.3
20260503200005 66 235 9.0 15.0 0.00 0.00 0.00 46 1013.1
20260503195506 66 200 11.0 17.0 0.00 0.00 0.00 45 1013.4
20260503195005 66 186 12.0 21.0 0.00 0.00 0.00 45 1013.6
20260503194005 65 210 12.0 18.0 0.00 0.00 0.00 46 1013.7
20260503193506 65 198 13.0 20.0 0.00 0.00 0.00 45 1013.7
20260503193006 65 210 12.0 21.0 0.00 0.00 0.00 46 1013.8
20260503192505 65 218 13.0 20.0 0.00 0.00 0.00 47 1013.9
20260503192005 65 203 9.0 23.0 0.00 0.00 0.00 49 1013.9
20260503191006 64 201 12.0 20.0 0.00 0.00 0.00 48 1014.1
20260503190005 64 170 11.0 18.0 0.00 0.00 0.00 47 1014.4
20260503185505 64 208 9.0 20.0 0.00 0.00 0.00 49 1014.6
20260503185005 64 213 9.0 20.0 0.00 0.00 0.00 49 1014.9
20260503184005 64 204 10.0 17.0 0.00 0.00 0.00 48 1015.0
20260503183505 64 209 7.0 14.0 0.00 0.00 0.00 50 1015.0
20260503183006 63 223 10.0 18.0 0.00 0.00 0.00 48 1015.3
20260503182006 63 218 7.0 13.0 0.00 0.00 0.00 49 1015.5
20260503181505 63 204 12.0 21.0 0.00 0.00 0.00 48 1015.7
20260503181006 63 210 8.0 17.0 0.00 0.00 0.00 50 1015.7
20260503180005 62 217 11.0 17.0 0.00 0.00 0.00 51 1015.9
20260503175505 63 230 9.0 16.0 0.00 0.00 0.00 51 1015.9
20260503175005 63 190 8.0 17.0 0.00 0.00 0.00 50 1016.0
20260503174005 63 209 7.0 12.0 0.00 0.00 0.00 50 1016.3
20260503173505 62 209 9.0 16.0 0.00 0.00 0.00 50 1016.3
20260503173005 62 208 9.0 18.0 0.00 0.00 0.00 52 1016.4
20260503172505 62 215 10.0 20.0 0.00 0.00 0.00 50 1016.5
20260503172005 62 229 12.0 21.0 0.00 0.00 0.00 50 1016.6
20260503171505 61 213 9.0 17.0 0.00 0.00 0.00 50 1016.8
20260503171005 61 234 8.0 15.0 0.00 0.00 0.00 50 1016.7
20260503170506 62 233 11.0 18.0 0.00 0.00 0.00 52 1016.8
20260503151005 58 209 7.0 16.0 0.00 0.00 0.00 57 1017.9
20260503150505 57 190 9.0 14.0 0.00 0.00 0.00 58 1017.9
20260503131005 50 211 7.0 10.0 0.00 0.00 0.00 67 1018.2
20260503130505 49 204 6.0 10.0 0.00 0.00 0.00 69 1018.2
20260503090504 37 355 0.0 0.0 0.00 0.00 0.00 89 1017.5
20260503081505 38 355 0.0 0.0 0.00 0.00 0.00 89 1017.3
20260503081005 38 355 0.0 0.0 0.00 0.00 0.00 89 1017.3
20260503080505 38 355 0.0 0.0 0.00 0.00 0.00 89 1017.3
20260503072505 38 355 0.0 0.0 0.00 0.00 0.00 89 1017.2
20260503072005 38 355 0.0 0.0 0.00 0.00 0.00 89 1017.3
20260503071505 38 355 0.0 0.0 0.00 0.00 0.00 88 1017.3
20260503071005 38 355 0.0 0.0 0.00 0.00 0.00 88 1017.3
20260503070505 38 355 0.0 0.0 0.00 0.00 0.00 88 1017.3
20260503055004 39 355 0.0 0.0 0.00 0.00 0.00 86 1017.7
20260503054504 39 355 0.0 0.0 0.00 0.00 0.00 86 1017.7
20260503054005 39 355 0.0 0.0 0.00 0.00 0.00 85 1017.7
20260503053004 39 355 0.0 0.0 0.00 0.00 0.00 85 1017.6
20260503052505 39 355 0.0 0.0 0.00 0.00 0.00 85 1017.6
20260503052005 39 355 0.0 0.0 0.00 0.00 0.00 85 1017.7
20260503051505 39 355 0.0 0.0 0.00 0.00 0.00 84 1017.7
20260503050004 40 355 0.0 0.0 0.00 0.00 0.00 84 1017.7
20260503045005 40 355 0.0 0.0 0.00 0.00 0.00 84 1017.7
20260503044005 40 355 0.0 0.0 0.00 0.00 0.00 83 1017.6
20260503043505 40 355 0.0 0.0 0.00 0.00 0.00 83 1017.6
20260503042504 41 355 0.0 0.0 0.00 0.00 0.00 82 1017.5
20260503042005 41 355 0.0 0.0 0.00 0.00 0.00 82 1017.5
20260503041505 41 355 0.0 0.0 0.00 0.00 0.00 81 1017.5
20260503041005 41 355 0.0 0.0 0.00 0.00 0.00 81 1017.5
20260503040504 41 355 0.0 0.0 0.00 0.00 0.00 80 1017.5
20260503040005 41 355 0.0 0.0 0.00 0.00 0.00 80 1017.6
20260503035505 41 355 0.0 0.0 0.00 0.00 0.00 80 1017.5
20260503034504 42 355 0.0 0.0 0.00 0.00 0.00 79 1017.5
20260503034005 42 355 0.0 0.0 0.00 0.00 0.00 78 1017.5
20260503033504 42 355 0.0 0.0 0.00 0.00 0.00 78 1017.5
20260503033005 42 355 0.0 0.0 0.00 0.00 0.00 78 1017.5
20260503032505 42 355 0.0 0.0 0.00 0.00 0.00 77 1017.5
20260503032005 42 355 0.0 0.0 0.00 0.00 0.00 77 1017.5
20260503031505 43 355 0.0 0.0 0.00 0.00 0.00 76 1017.5
20260503031004 43 355 0.0 0.0 0.00 0.00 0.00 76 1017.5
20260503030505 43 355 0.0 0.0 0.00 0.00 0.00 76 1017.6
20260503030005 43 355 0.0 0.0 0.00 0.00 0.00 75 1017.6